Regional Weather Roundup
Issued by NWS

Home | Current Version | Previous Version | Graphics & Text | Print | Product List | Glossary Off
Versions: 1 2 3 4 5 6 7 8 9 10 11 12 13 14 15 16 17 18 19 20 21 22 23 24 25 26 27 28 29 30 31 32 33 34 35 36 37 38 39 40 41 42 43 44 45 46 47 48 49 50

000
ASUS43 KMKX 191000
RWRWI

WISCONSIN REGIONAL WEATHER ROUNDUP
NATIONAL WEATHER SERVICE MILWAUKEE/SULLIVAN WI
500 AM CDT FRI SEP 19 2014

NOTE: "FAIR" INDICATES FEW OR NO CLOUDS BELOW 12,000 FEET WITH NO
SIGNIFICANT WEATHER AND/OR OBSTRUCTIONS TO VISIBILITY.

WIZ001-002-006>008-014>016-023>028-191100-
NORTHWEST WISCONSIN

CITY           SKY/WX    TMP DP  RH WIND       PRES   REMARKS
SUPERIOR ARPT  CLOUDY    46  46 100 CALM      29.92F FOG
ASHLAND        CLOUDY    55  51  86 S10G18    29.96F
HAYWARD        MOCLDY    54  51  90 S9        29.98F
SIREN          MOCLDY    58  52  83 S10G17    29.95F
RICE LAKE      MOCLDY    52  50  94 SE8       30.00F FOG
LADYSMITH      MOCLDY    53  51  94 S7        30.04F
EAU CLAIRE     NOT AVBL
MENOMONIE      PTSUNNY   52  51  97 E6        30.01S FOG
NEW RICHMOND   PTCLDY    56  53  87 S8        29.97F
OSCEOLA        PTCLDY    58  55  89 S9        29.98F
$$

WIZ003>005-009-010-017-018-191100-
NORTH CENTRAL WISCONSIN

CITY           SKY/WX    TMP DP  RH WIND       PRES   REMARKS
WOODRUFF       CLOUDY    52  50  93 S12G23    30.06S FOG
RHINELANDER    CLOUDY    50  50 100 S7        30.09S FOG
EAGLE RIVER    CLOUDY    49  49 100 S7        30.07S FOG
LAND O LAKES   CLOUDY    50  49  97 S7        30.07F FOG
PHILLIPS       MOCLDY    51  49  95 S12       30.03S
TOMAHAWK       CLOUDY    50  49  97 CALM      30.08F FOG
MEDFORD        CLOUDY    50  49  98 S10       30.06S FOG
MERRILL        CLOUDY    51  51 100 S5        30.08F FOG
$$

WIZ029-030-035-036-043>047-191100-
CENTRAL WISCONSIN

CITY           SKY/WX    TMP DP  RH WIND       PRES   REMARKS
WAUSAU         MOCLDY    50  50 100 S5        30.08S FOG
MOSINEE        CLOUDY    48  48 100 SE7       30.09F FOG
MARSHFIELD     CLOUDY    51  50  96 S7        30.08S FOG
STEVENS POINT  CLOUDY    48  48 100 S6        30.10F FOG
WAUPACA        FOG       46  45  96 S3        30.12F VSB 1/4
WAUTOMA        CLOUDY    50  50 100 S9        30.13F FOG
WISC RAPIDS    PTCLDY    49  48  97 S6        30.10F FOG
CAMP DOUGLAS   FOG       46  46 100 SE6       30.08F VSB 3/4
$$

WIZ011>013-019>022-031-037>040-048>050-191100-
NORTHEAST WISCONSIN

CITY           SKY/WX    TMP DP  RH WIND       PRES   REMARKS
ANTIGO         FOG       47  47 100 S7        30.10S VSB 1/4
STURGEON BAY   CLOUDY    54  52  94 S10       30.14S
GREEN BAY      CLOUDY    48  48 100 S7        30.13F
MANITOWOC      NOT AVBL
APPLETON       MOCLDY    50  48  93 S10       30.14S
CLINTONVILLE   CLOUDY    43  43 100 CALM      30.12S FOG
OSHKOSH        CLOUDY    52  52 100 S10       30.12F FOG
$$

WIZ032>034-041-042-053>061-191100-
SOUTHWEST WISCONSIN

CITY           SKY/WX    TMP DP  RH WIND       PRES   REMARKS
LA CROSSE      MOCLDY    57  52  83 SE9       30.04F
SPARTA         PTCLDY    55  52  88 S8        30.07F
VIROQUA        FAIR      51  51 100 SE6       30.08S
BOSCOBEL       CLEAR     53  49  86 CALM      30.09F
PRAIRIE DU CHI PTCLDY    53  51  90 E5        30.08S FOG
PLATTEVILLE    FAIR      49  48  95 CALM      30.12S
$$

WIZ056-057-062-063-064-067-068-191100-
SOUTH CENTRAL WISCONSIN

CITY           SKY/WX    TMP DP  RH WIND       PRES   REMARKS
BARABOO/DELLS  FOG       49  47  94 CALM      30.12S VSB 1
LONE ROCK      NOT AVBL
WATERTOWN      FOG       52  52 100 CALM      30.14S VSB 1/4
MADISON        CLOUDY    54  52  93 S9        30.13F FOG
MIDDLETON      CLOUDY    54  54  99 S9        30.13S
MONROE         FOG       52  52 100 SE9       30.13S VSB 1/4
JANESVILLE     CLOUDY    57  54  88 SE6       30.13S FOG
$$

WIZ051-052-058>065-066-070>072-191100-
SOUTHEAST WISCONSIN

CITY           SKY/WX    TMP DP  RH WIND       PRES   REMARKS
MILWAUKEE      PTCLDY    54  52  93 SE3       30.15R FOG
WAUKESHA       FOG       50  50 100 CALM      30.16R VSB 1/2
MILWAUKEE/TIMM CLEAR     48  46  93 CALM      30.17R
RACINE         CLEAR     59  55  87 S7        30.17R
BURLINGTON     FOG       51  51 100 CALM      30.14S VSB 1/4
KENOSHA        CLEAR     55  55 100 SE5       30.16R
FOND DU LAC    CLOUDY    54  52  93 S8        30.14F
SHEBOYGAN      MOCLDY    49  46  90 S3        30.15F
WEST BEND      CLOUDY    46  45  93 CALM      30.15S
JUNEAU         FOG       53  53 100 SE6       30.16R VSB 1/4
$$

LSZ147-162-191100-
LAKE SUPERIOR

STATION/POSITION TIME  TEMP    WIND        PRES    WAVE
                       AIR SEA DIR/SP/G            HT/PER
                 (UTC) (F)     (DEG/KT/KT) (MB)    (FT/S)
W MID LAKE BUOY  0850   52 48  190/ 12/ 12 1014.7F   1/ 4
DEVILS ISLAND    0900   54     200/ 11/ 13 1014.6F
PORT WING        0900   47      CALM  /  2 1013.9F
SAXON HARBOR     0900   57     190/  7/ 13 1014.9
$$

LMZ867-665-643>646-191100-
LAKE MICHIGAN

STATION/POSITION TIME  TEMP    WIND        PRES    WAVE
                       AIR SEA DIR/SP/G            HT/PER
                 (UTC) (F)     (DEG/KT/KT) (MB)    (FT/S)
N MID LAKE BUOY  0850   56 58  190/ 17/ 19 1020.8S   2/ 3
NORTHPORT PIER   0900   52     160/  3/  4 1020.7S
SISTER BAY       0742   50        CALM       N/A
KEWAUNEE LAKESHO 0900   47     280/  1/  2 1019.9R
SHEBOYGAN LAKESH 0900   53 50  190/  4/  4 1021.8R
PORT WASHINGTON  0940   58      CALM  /  3 1021.7S
ATWATER BUOY     0900   60     160/ 10/ 12 1021.5F
MILWAUKEE LAKESH 0900   60     180/  6/  8   N/A
S MID LAKE BUOY  0850   61 62  150/ 16/ 19 1020.8F   3/ 4
KENOSHA   LAKESH 0900   62     160/ 12/ 14 1020.3S
$$

TC  - TEMPERATURE IN CELSIUS
VSB - VISIBILITY IN STATUTE MILES
WCI - WIND CHILL INDEX
HX  - HEAT INDEX




USA.gov is the U.S. government's official web portal to all federal, state and local government web resources and services.